Showing default

HULIANWANG DIGUI-75, 65307

Orbit data source: Space-Track

HULIANWANG DIGUI-75, 65307 is a payload satellite owned by Zhongguo Xingwang (CN) in LEO that was launched on Mon, 25 Aug 2025 UTC via a CHANG ZHENG 8A launch vehicle from the Wenchang Satellite Launch Center (WSC). Payload-class satellites include a variety of spacecraft equipped with specific instruments for various scientific and technological missions. These include communications satellites like Starlink; space stations such as the ISS; scientific satellites like the Hubble; Earth observation satellites from companies like Planet Labs, Umbra, and HawkEye 360; GPS; miniature CubeSats for education and research; and military/defense satellites.

Loading next visibility...
Identifier
65307, 2025-187C
Orbit
LEO
Country
Flag of CNCN / PRC
Related business
Manufacturer
SECM
Mission
Operational Civil Communications
Bus & Motor
XINGWANG S, Unknown motor
Mass
~800 kg wet, ~800 kg dry
Launch date (UTC)
2025-08-25 (10 months ago)
Launch vehicle
CHANG ZHENG 8A
Launch site
Wenchang Satellite Launch Center (WSC)
Object type
Payload
Rocket body
Debris
Shape & HBR
Box + 2 Pan, 1.1 m
Radar Cross Section
5.935 m², Large (>1 m²)

Expand to show TLE details & history
Last TLE update: 13 hours ago

TLE from 13 hours ago
0 HULIANWANG DIGUI-75
1 65307U 25187C   26171.41188100 -.00000102  00000-0  48059-4 0  9998
2 65307  50.0064 194.1042 0000397 212.4782 147.6066 13.29324009 40135
Epoch: 2026-06-20T09:53Z
TLE epoch observation values (Epoch: 2026-06-20T09:53:06.518Z)
Latitude
Longitude
137.20016°
Altitude
1,150.073 km
Speed
7.279 km/s
True Right ascension
12h 56m 25s
True Declination
0° 00' 00"
Sunlit
Object was in daylight at epoch
Visualization orbit readout
Latitude
Unknown
Longitude
Unknown
Altitude
Unknown
Speed
Unknown
Apparent Right ascension
Unknown
Apparent Declination
Unknown
Sunlit
N/A
Visualization observer readout
Local Sidereal Time
10:18:24
Azimuth
Unknown
Elevation
Unknown
Doppler factor
Unknown
Orbital elements
Apogee altitude
1,150.317 km
Perigee altitude
1,149.72 km
Semi-major axis
7,528.155 km
Eccentricity
0.00004
Inclination
50.0064°
RAAN
194.1042°
Arg. of periapsis
212.4782°
True anomaly
147.60904°
Mean anomaly
147.6066°
Eccentric anomaly
147.60782°
Mean motion
3.32285 °/min
Orbital period
108.34 mins
BSTAR
0.000048059
Loading maneuver chart data...
Computing Atmospheric mass density...
Loading historical data...
Loading historical data...
Loading historical data...
Loading historical data...
Loading historical data...
Loading historical data...
Loading historical data...

Documentation

Showing up to 5 results
|